sat.trackr.live / text

‹ back to catalog

QIANFAN-130

NORAD 69076 · 2026-104D

PAYLOAD ACTIVE UNKNOWN

§ Identity

Operator
Country
PRC
Launch date
2026-05-12
Launch site
TAISC
Launch vehicle
Mass (kg)
RCS (m²)

External: N2YO · Heavens-Above · Gunter

§ Orbital elements

Epoch: 2026-05-25T04:47:26.469024Z

Period
101.50 min
Inclination
88.9868°
Eccentricity
0.0003478
Mean motion
14.18732423 rev/d
Perigee alt
827.1 km
Apogee alt
832.1 km
Semi-major
7,207.8 km
B*
3.1915e-5
RAAN
344.2488°
Arg perigee
148.8814°
Mean anomaly
211.2582°
Rev number
182

§ Raw data

QIANFAN-1301 69076U 26104D   26145.19961191  .00000081  00000+0  31915-4 0  99972 69076  88.9868 344.2488 0003478 148.8814 211.2582 14.18732423  1823

JSON: /api/v1/satellites/69076 · /tle

For live sub-satellite position, see the globe view (requires WebGL).

§ Visibility from observer

Set your observer location to see the next 7 days of passes ≥ 10°. The values pass through the URL so the page stays shareable.

No JS? Fill the form by hand. The geolocation button needs JavaScript.